Location: Grums
(59.3529°N, 13.1129°E)
Time: 23:51:03
(UTC+01:00)

SEEDS - Pass Details

Date: 01 December 2021
Orbit: 584 x 600 km, 97.6° (Epoch: 27 January)

Event Time Altitude Azimuth Distance (km) Brightness Sun altitude
Rises 17:26:09 0° 227° (SW) 2,829 ? -15.0°
Reaches altitude 10° 17:30:18 10° 268° (W) 1,930 ? -15.5°
Maximum altitude 17:31:08 11° 280° (W) 1,899 ? -15.6°
Drops below altitude 10° 17:31:57 10° 291° (WNW) 1,931 ? -15.7°
Sets 17:36:08 0° 332° (NNW) 2,835 ? -16.2°
